EXPRESS-AM5

Last updated on Sun Apr 12 2026 00:02:53 GMT+0000 (Coordinated Universal Time)

1 39487U 13077A 26101.84975334 -.00000278 00000+0 00000+0 0 9998 2 39487 0.0149 248.8313 0001453 77.5277 319.6329 1.00272189 45691
UTC large
Height (km)
Speed (km/s)
/
Latitude / Longitude
Inclination (degrees)
Orbital Period (minutes)
Azimuth
Elevation
Range (km)
Doppler Factor

Next 0 passes for location: London (51.5072 / 0.1276)

Sorry there are no passes over London.
EXPRESS-AM5